星链-36526(STARLINK-36526)

导读 | 豆包AI

STARLINK-36526是美国SpaceX星链星座的一员,于2026年1月18日发射升空。星链项目旨在构建全球卫星互联网,为偏远地区、海上以及空中提供高速网络服务。作为低轨卫星星座的组成部分,该卫星会加入现有的卫星通信网络,拓展星座覆盖范围,提升全球互联网服务的能力,进一步推动星链项目的部署进程。

基本信息
目录编号:
67508
目录名称:
STARLINK-36526
国际标识:
2026-012R
轨道中心:
EARTH
卫星名称:
星链-36526
卫星全名:
星链-36526(STARLINK-36526)
卫星状态:
在轨 (已飞行127 天)
发射日期:
2026-01-18 UTC
国别 :
美国 (US)
星等 :
--
轨道信息
数据来源 国际轨道数据
星历时间: 2026-05-25T07:22:12+0800
10小时前
查看轨道信息
半长轴: 6861.153km
偏心率: 0.000229
轨道倾角: 43.002°
近地点辐角 267.045°
升交点赤经 243.138°
平近点角 93.014°
近地点: 481.444km
远地点: 484.588km
周期: 94.266分钟
每日圈数: 15.275911
详细信息
固有亮度:
5
最大亮度:
2.5
卫星平台:
Starlink V1.0
覆盖范围:
全球
运营商:
太空探索技术公司
运营商所在国:
美国
制造商(研发单位):
太空探索技术公司
制造商所在国:
美国
使用方式:
暂无
卫星简介
Starlink 计划是 SpaceX 推出的全球卫星互联网项目,通过发射低轨道卫星,为全球尤其是偏远地区提供高速、低延迟的互联网服务。自 2019 年起,Starlink 已部署数千颗卫星,旨在缩小全球数字鸿沟,推动互联网普及。该项目还为军事、航空等行业提供通信支持,带来广泛经济效益。
2D轨道图
3D轨道图
轨道高度分析图
轨道倾角分析图
轨道综合分析图
查看轨道综合分析图